DW2770 Weather Reports


Display with metric or nautical units.
time (UTC)temp
F
wind
direction
speed
MPH
gust
MPH
rain 1hr
in
rain 24hr
in
rain mn
in
humidity
%
barometer
mb
20260504000004 56 185 2.0 4.0 0.00 0.00 0.00 68 1018.9
20260503234505 56 192 4.0 6.0 0.00 0.00 0.00 67 1018.9
20260503233005 57 182 4.0 8.0 0.00 0.00 0.00 65 1019.1
20260503231508 57 213 3.0 9.0 0.00 0.00 0.00 65 1019.2
20260503230012 57 196 3.0 6.0 0.00 0.00 0.00 64 1019.3
20260503224503 58 186 2.0 8.0 0.00 0.00 0.00 62 1019.5
20260503223004 58 192 4.0 8.0 0.00 0.00 0.00 62 1019.6
20260503221508 58 173 1.0 5.0 0.00 0.00 0.00 62 1019.7
20260503220029 58 200 4.0 7.0 0.00 0.00 0.00 60 1019.6
20260503214514 58 208 3.0 6.0 0.00 0.00 0.00 59 1019.5
20260503213008 58 193 2.0 6.0 0.00 0.00 0.00 59 1019.5
20260503211505 58 188 1.0 5.0 0.00 0.00 0.00 58 1019.5
20260503210008 59 212 2.0 4.0 0.00 0.00 0.00 58 1019.6
20260503204514 59 234 1.0 4.0 0.00 0.00 0.00 55 1019.6
20260503203028 59 146 0.0 1.0 0.00 0.00 0.00 55 1019.2
20260503201505 59 178 0.0 3.0 0.00 0.00 0.00 55 1019.2
20260503200004 59 182 0.0 5.0 0.00 0.00 0.00 53 1019.4
20260503194512 60 188 0.0 1.0 0.00 0.00 0.00 52 1019.4
20260503193017 60 150 0.0 2.0 0.00 0.00 0.00 53 1019.4
20260503191522 61 109 2.0 6.0 0.00 0.00 0.00 61 1019.3
20260503190004 61 72 0.0 4.0 0.00 0.00 0.00 62 1019.1
20260503184510 61 92 1.0 8.0 0.00 0.00 0.00 64 1018.7
20260503183019 61 96 0.0 3.0 0.00 0.00 0.00 64 1018.9
20260503181526 61 115 0.0 2.0 0.00 0.00 0.00 64 1018.8
20260503180026 61 96 1.0 4.0 0.00 0.00 0.00 63 1018.8
20260503174504 62 113 2.0 6.0 0.00 0.00 0.00 62 1018.9
20260503173022 62 127 3.0 9.0 0.00 0.00 0.00 59 1018.8
20260503171516 63 108 2.0 7.0 0.00 0.00 0.00 58 1018.7
20260503081515 63 289 2.0 7.0 0.00 0.00 0.00 57 1020.9
20260503071512 62 288 1.0 3.0 0.00 0.00 0.00 54 1020.6
20260503054520 59 240 2.0 3.0 0.00 0.00 0.00 57 1020.7
20260503053027 58 240 0.0 4.0 0.00 0.00 0.00 59 1020.6
20260503051526 57 263 2.0 4.0 0.00 0.00 0.00 59 1020.5
20260503050000 56 227 2.0 4.0 0.00 0.00 0.00 59 1020.4
20260503044504 55 199 4.0 9.0 0.00 0.00 0.00 58 1020.2
20260503043005 54 193 5.0 11.0 0.00 0.00 0.00 58 1020.2
20260503041512 54 198 4.0 10.0 0.00 0.00 0.00 57 1020.1
20260503040001 54 208 4.0 10.0 0.00 0.00 0.00 57 1020.1
20260503034500 54 182 5.0 9.0 0.00 0.00 0.00 57 1020.1
20260503033004 54 200 5.0 9.0 0.00 0.00 0.00 58 1020.0
20260503031508 54 191 3.0 8.0 0.00 0.00 0.00 58 1020.0
20260503030011 55 197 3.0 9.0 0.00 0.00 0.00 55 1020.0
20260503024507 55 175 2.0 7.0 0.00 0.00 0.00 55 1020.0
20260503023004 54 207 4.0 8.0 0.00 0.00 0.00 54 1020.2
20260503021508 54 190 3.0 7.0 0.00 0.00 0.00 56 1020.2
20260503013009 55 195 3.0 7.0 0.00 0.00 0.00 61 1020.4
20260503011505 54 207 4.0 8.0 0.00 0.00 0.00 62 1020.6
20260503010008 55 195 4.0 7.0 0.00 0.00 0.00 59 1020.7
20260503004513 55 202 4.0 8.0 0.00 0.00 0.00 58 1020.8
20260503003019 55 173 6.0 11.0 0.00 0.00 0.00 56 1021.0
20260503001505 55 198 5.0 10.0 0.00 0.00 0.00 58 1021.1